Regional Weather Roundup
Issued by NWS Upton, NY

Current Version | Previous Version | Graphics & Text | Print | Product List | Glossary Off
Versions: 1 2 3 4 5 6 7 8 9 10 11 12 13 14 15 16 17 18 19 20 21 22 23 24 25 26 27 28 29 30 31 32 33 34 35 36 37 38 39 40 41 42 43 44 45 46 47 48 49 50

000
ASUS41 KOKX 251805
RWROKX

REGIONAL WEATHER ROUNDUP
NATIONAL WEATHER SERVICE NEW YORK NY
200 PM EDT FRI JUL 25 2014

NOTE: "FAIR" INDICATES FEW OR NO CLOUDS BELOW 12,000 FEET WITH NO
SIGNIFICANT WEATHER AND/OR OBSTRUCTIONS TO VISIBILITY.

NYZ071-072-176-178-NJZ106-104-251900-
NEW YORK CITY METRO AREA


CITY           SKY/WX    TMP DP  RH WIND       PRES   REMARKS
CENTRAL PARK   SUNNY     81  54  39 VRB5      30.02F
LAGUARDIA APRT MOSUNNY   79  52  38 CALM      29.98F
KENNEDY INTL   MOSUNNY   82  49  31 VRB3      30.00F
NEWARK/LIBERTY MOSUNNY   81  51  35 VRB7      29.99F
BRNX BOT. GARD   N/A     79  55  44 NW8       30.00S
TETERBORO      MOSUNNY   83  51  33 NW9       29.98F
$$

NYZ177-179-078>081-251900-
LONG ISLAND NEW YORK

CITY           SKY/WX    TMP DP  RH WIND       PRES   REMARKS
FARMINGDALE    SUNNY     79  54  41 VRB5      29.99F
ISLIP          MOSUNNY   81  51  35 NW12      29.98F
SHIRLEY        SUNNY     81  51  35 NW8       29.99F
WESTHAMPTON    SUNNY     79  53  40 N12       30.00F
MONTAUK POINT    N/A     77  52  41 VRB5      29.99F
$$

NYZ052-065-067-251900-
HUDSON VALLEY

CITY           SKY/WX    TMP DP  RH WIND       PRES   REMARKS
WHITE PLAINS   MOSUNNY   77  51  40 NW6       30.00F
NEWBURGH       SUNNY     75  57  53 CALM      30.02F
MONTGOMERY     SUNNY     77  54  44 CALM      30.01F
POUGHKEEPSIE   SUNNY     78  54  43 W6        29.99F
ALBANY         MOSUNNY   79  54  41 CALM      29.99F
$$

NJZ001-105-106-008-010-013-015-019>022-104-251900-
NEW JERSEY

CITY           SKY/WX    TMP DP  RH WIND       PRES   REMARKS
NEWARK/LIBERTY MOSUNNY   81  51  35 VRB7      29.99F
TETERBORO      MOSUNNY   83  51  33 NW9       29.98F
CALDWELL       MOSUNNY   80  53  39 NE5       30.00F
MORRISTOWN     NOT AVBL
SOMERVILLE     NOT AVBL
LINDEN         FAIR      82  53  37 NW7       30.01S
SUSSEX         SUNNY     80  52  37 VRB3      30.02S
ANDOVER          N/A     77  54  44 N5        30.02F
TRENTON        MOSUNNY   80  55  42 N7        30.00F
MILLVILLE      MOSUNNY   79  60  52 SW6       30.01S
ATLANTIC CITY  PTSUNNY   76  63  64 SE10      30.01R
WRIGHTSTOWN    MOSUNNY   81  55  41 N6        29.98F
TOMS RIVER     MOSUNNY   79  55  44 SE6       30.00F
BELMAR         PTSUNNY   79  55  44 E8        30.00F
$$

PAZ047>061-062-071-251900-
EASTERN PENNSYLVANIA

CITY           SKY/WX    TMP DP  RH WIND       PRES   REMARKS
PHILADELPHIA   MOSUNNY   80  53  39 S8        30.01S
ALLENTOWN      SUNNY     79  53  40 VRB3      30.02F
SCRANTON       SUNNY     77  50  38 NW3       30.04F
$$

CTZ002-004>006-009-010-012-RIZ004-006-007-MAZ004-011-015-251900-
SOUTHERN NEW ENGLAND
 IN CT

CITY           SKY/WX    TMP DP  RH WIND       PRES   REMARKS
BRADLEY INTL   MOSUNNY   81  56  42 NW8       29.97F
HARTFORD       SUNNY     78  54  43 NE6       29.97F
DANBURY        SUNNY     76  52  43 N7        30.02F
WTRBRY/OXFORD  NOT AVBL
BRIDGEPORT     SUNNY     78  57  48 SW14      29.98F
MERIDEN        SUNNY     79  54  41 VRB7      29.98F
NEW HAVEN      MOSUNNY   78  59  51 SW9       29.98F
CHESTER        FAIR      77  54  44 W3        29.99F
GROTON         SUNNY     79  55  43 VRB3      29.96F
WILLIMANTIC    SUNNY     79  54  41 MISG      29.97F

 IN RI

CITY           SKY/WX    TMP DP  RH WIND       PRES   REMARKS
PROVIDENCE     MOSUNNY   80  52  37 NW7       29.96F
BLOCK ISLAND   SUNNY     75  57  53 CALM      29.98S
WESTERLY       SUNNY     80  53  39 VRB7      29.97F

 IN MA

CITY           SKY/WX    TMP DP  RH WIND       PRES   REMARKS
BOSTON         MOSUNNY   78  53  41 VRB5G16   29.94F
WORCESTER      MOSUNNY   75  54  47 W9        29.99F
WESTFIELD      MOSUNNY   80  54  40 W8        29.97F
PROVINCETOWN   SUNNY     73  54  49 CALM      29.96S
NANTUCKET      SUNNY     74  60  61 NE7       29.95F
$$

ANZ330-335-338-340-345-350-353-355-251900-
COASTAL MARINE OBSERVATIONS


STATION/POSITION TIME  SKY/WX   TEMP    WIND        PRES    VSBY  WAVE
                                AIR SEA DIR/SP/G                  HT/PER
                 (UTC)          (F)     (DEG/KT/KT) (MB)    (MI)  (FT/S)
NY HARB ENTRANCE NOT AVBL
4S FIRE IS       NOT AVBL
23SW MTP         1800            71 72              1014.9          2/ 8
HUDSON CANYON    1800            72 74   40/  8/ 10 1015.6          3/ 8
EXECUTION ROCKS  1800            75 75  150/  4/  4   N/A
WESTERN LI SOUND 1800            74     200/  4/  6   N/A           1
CENTRAL LI SOUND 1700            72 73  250/  8/ 10   N/A           1
EASTERN LI SOUND 1700            73 67   40/  2/  6   N/A
ROBBINS REEF     1800            76     120/  4/  5   N/A
$$


>>>>>>>>>>>>>>>>>>>>>>>>>>>> KEY <<<<<<<<<<<<<<<<<<<<<<<<<<<
>                                                          <
>     SKY/WX - SKY CONDITION/PRESENT WEATHER               <
>     TMP    - TEMPERATURE IN FAHRENHEIT                   <
>     DP     - DEWPOINT IN FAHRENHEIT                      <
>     RH     - RELATIVE HUMIDITY IN PERCENT                <
>     WIND   - DIRECTION AND SPEED IN MPH                  <
>     PRES   - MEAN SEA LEVEL PRESSURE IN INCHES OF HG     <
>     WCI    - WIND CHILL INDEX                            <
>     VSB    - VISIBILITY IN MILES                         <
>     HX     - HEAT INDEX                                  <
>     TC     - TEMPERATURE IN CELSIUS                      <
>     VRB    - VARIABLE WIND DIRECTION                     <
>                                                          <
>>>>>>>>>>>>>>>>>>>>>>>>>>>> KEY <<<<<<<<<<<<<<<<<<<<<<<<<<<




USA.gov is the U.S. government's official web portal to all federal, state and local government web resources and services.